STARLINK-32034, 60297

Orbit data source: Space-Track

STARLINK-32034, 60297 is a payload satellite owned by SpaceX/Seattle (US) in LEO that was launched on Sun, 28 Jul 2024 UTC via an FALCON 9 launch vehicle from the Air Force Eastern Test Range (AFETR). Payloads include a variety of satellites, spacecraft, and rockets equipped with specific instruments for various scientific and technological missions. These include communications satellites like Starlink; space stations such as the ISS; scientific satellites like the Hubble; Earth observation satellites from companies like Planet Labs, Umbra, and HawkEye 360; GPS; miniature CubeSats for education and research; and military/defense satellites.

Loading next visibility...
STARLINK-32034 details
Identifier
60297, 2024-132V
Orbit
LEO
Last TLE update17 hours ago
Origin
Flag of USSpaceX/Seattle (US)
ManufacturerSpaceX/Seattle
MissionOperational spacecraft
Bus & MotorSTARLINK V2M, Unknown motor
Mass730 kg wet, ~700 kg dry
Launch date (UTC)
2024-07-28 (6 months ago)
Launch vehicle
FALCON 9
Launch site
Air Force Eastern Test Range (AFETR)
Object type
Payload
Rocket body
Debris
Shape & HBRUnknown
Radar Cross SectionLarge (>1 m²)

Expand to show TLE details & history

TLE from 17 hours ago
0 STARLINK-32034
1 60297U 24132V   25014.92029727 -.00000420  00000-0 -20551-5 0  9992
2 60297  53.1607 197.6616 0001315  67.5897 292.5243 15.30210597 27443
Epoch: 2025-01-14T22:05Z
Definitive object data (Epoch: 2025-01-14T22:05:13.684Z)
Latitude-0°
Longitude111.73451°
Altitude475.738 km
Speed7.629 km/s
True Right ascension13h 10m 38s
True Declination0° 00' 00"
Sunlit
Object was in daylight at TLE epoch
Visualization TLE readout
Latitude-48.39613°
Longitude51.41581°
Altitude492.468 km
Speed7.618 km/s
Apparent Right ascension06h 19m 06s
Apparent Declination-52° 02' 24"
Sunlit
Object is in daylight
Visualization observer readout
Local Sidereal Time15:42:36
Azimuth232.436° WSW
Elevation-60.681°
Doppler factor1
Orbital elements
Apogee altitude476.341 km
Perigee altitude474.539 km
Semi-major axis6,853.577 km
Eccentricity0.0001315
Inclination53.1607°
RAAN197.6616°
Arg. of periapsis67.5897°
True anomaly292.51038°
Mean anomaly292.5243°
Eccentric anomaly292.51734°
Mean motion3.82532 °/min
BSTAR-0.0000020551
Orbital period94.11 mins
Loading maneuver chart data...
Loading historical data...
Loading historical data...
Loading historical data...
Loading historical data...
Loading historical data...
Loading historical data...
Loading historical data...

STARLINK-32034 Visibility forecast

Observer location: undefined°, undefined

Span
Click to sort rows by Start time (UTC) header in descending order
Start Az.
Max El. time (UTC)
Max El. Az.
Max El.
End time (UTC)
End Az.
6 mins2025-01-15 15:32:49.431Z263.251° W2025-01-15 15:35:49.431Z342.158° N30.745°2025-01-15 15:38:49.431Z36.47° NE
4 mins2025-01-15 20:30:49.431Z348.431° N2025-01-15 20:32:49.431Z42.465° NE24.459°2025-01-15 20:34:49.431Z82.617° E
4 mins2025-01-15 22:08:49.431Z278.138° WNW2025-01-15 22:10:49.431Z205.778° SW31.833°2025-01-15 22:12:49.431Z162.571° S
4 mins2025-01-16 13:26:49.431Z161.96° S2025-01-16 13:27:49.431Z139.939° SSE20.513°2025-01-16 13:30:49.431Z80.197° E
|